Location: Newark
(51.2625°N, 13.3939°E)
Time: 22:59:35
(UTC+00:00)

Transit 2A Rocket - Pass Details

Date: 22 November 2019
Orbit: 594 x 909 km, 66.7° (Epoch: 05 December)

Event Time Altitude Azimuth Distance (km) Brightness Sun altitude
Exits shadow 04:11:47 49° 334° (NNW) 788 4.8 -21.8°
Maximum altitude 04:12:54 79° 51° (NE) 628 4.5 -21.6°
Drops below altitude 10° 04:17:25 10° 139° (SE) 2,017 7.8 -20.9°
Sets 04:19:46 0° 140° (SE) 2,961 8.8 -20.5°
